星链-1360 (STARLINK-1360 )

导读 | 星芒AI

STARLINK-1360 是 SpaceX Starlink 项目中的一颗低轨通信卫星,属于第 27 批发射的星链卫星群。该卫星于 2023 年发射,运行在约 550 公里的轨道高度,旨在为全球用户提供高速互联网服务。它采用先进的推进系统和激光通信技术,支持星间通信,提升网络稳定性和覆盖范围。作为星链星座的一部分,STARLINK-1360 有助于缩小数字鸿沟,特别是在偏远和网络基础设施薄弱的地区。

基本信息
目录编号:
45588
目录名称:
STARLINK-1360
国际标识:
2020-025BK
轨道中心:
EARTH
卫星名称:
星链-1360
卫星全名:
星链-1360 (STARLINK-1360 )
卫星状态:
在轨 (已飞行2064 天)
发射日期:
2020-04-22 UTC
国别 :
美国 (US)
星等 :
--
轨道信息
数据来源 国际轨道数据
星历时间: 2025-12-15T16:00:02+0800
18小时前
查看轨道信息
半长轴: 6677.531km
偏心率: 0.0004666
轨道倾角: 53.039°
近地点辐角 57.939°
升交点赤经 335.014°
平近点角 101.824°
近地点: 296.28km
远地点: 302.512km
周期: 90.507分钟
每日圈数: 15.910321
详细信息
固有亮度:
5
最大亮度:
2.5
卫星平台:
Starlink V1.0
覆盖范围:
全球
运营商:
太空探索技术公司
运营商所在国:
美国
制造商(研发单位):
太空探索技术公司
制造商所在国:
美国
使用方式:
暂无
卫星简介
星链(Starlink)计划是由太空探索技术公司(SpaceX)提出的一个巨型低轨卫星互联网星座项目,计划在2019年至2024年间在太空搭建由约1.2万颗卫星组成的“星链”网络,其中1584颗将部署在地球上空550千米处的近地轨道,并从2020年开始工作。该卫星仍在工作。
2D轨道图
3D轨道图
轨道高度分析图
轨道倾角分析图
轨道综合分析图
查看轨道综合分析图